sat.trackr.live / text

‹ back to catalog

STARLINK-2549

NORAD 48314 · 2021-036AQ

PAYLOAD ACTIVE UNKNOWN

§ Identity

Operator
Country
US
Launch date
2021-04-29
Launch site
AFETR
Launch vehicle
Mass (kg)
RCS (m²)

Purposes: comms

External: N2YO · Heavens-Above · Gunter

§ Orbital elements

Epoch: 2026-09-03T18:28:44.849856Z

Period
94.01 min
Inclination
53.1594°
Eccentricity
0.0001148
Mean motion
15.31709757 rev/d
Perigee alt
469.9 km
Apogee alt
471.5 km
Semi-major
6,848.8 km
B*
1.1100e-4
RAAN
342.1618°
Arg perigee
90.7674°
Mean anomaly
269.3459°
Rev number
29,546

§ Raw data

STARLINK-25491 48314U 21036AQ  26246.76996354  .00003082  00000+0  11100-3 0  99992 48314  53.1594 342.1618 0001148  90.7674 269.3459 15.31709757295460

JSON: /api/v1/satellites/48314 · /tle

For live sub-satellite position, see the globe view (requires WebGL).

§ Visibility from observer

Set your observer location to see the next 7 days of passes ≥ 10°. The values pass through the URL so the page stays shareable.

No JS? Fill the form by hand. The geolocation button needs JavaScript.